{"data":{"norad_id":54230,"intl_designator":"2022-148A","name":"ZHONGXING-19","alt_names":[],"object_type":"PAYLOAD","status":"ACTIVE","operator":null,"country":"PRC","launch_date":"2022-11-05","launch_site_code":"XICLF","launch_vehicle":null,"mission":null,"orbit_class":"UNKNOWN","rcs_meters":null,"size_class":null,"mass_kg":null,"dimensions":null,"purposes":["comms"],"wikipedia_slug":null,"has_3d_model":false,"image_url":null,"decayed_at":null,"tle_current":{"epoch":"2026-09-19T14:38:37.576896Z","epoch_age_seconds":95256,"freshness":"FRESH","line1":"1 54230U 22148A   26262.61015714 -.00000085  00000+0  00000+0 0  9996","line2":"2 54230   0.0179 169.6855 0004552  10.3391 201.3353  1.00272953 14322","mean_motion":1.00272953,"eccentricity":0.0004552,"inclination_deg":0.0179,"raan_deg":169.6855,"arg_perigee_deg":10.3391,"mean_anomaly_deg":201.3353,"bstar":0,"rev_number":1432,"period_min":1436.080176077,"perigee_km":35767.074294627,"apogee_km":35805.460768512,"semimajor_km":42164.404531569,"source":"CELESTRAK","updated_at":"2026-09-20T09:00:35.308028Z"}}}